SCP
0 0 0 0 0 0 0 0 0 0 0 0 0 0 0 0 0 0 0 0 0 0 0 0 0 0 0 0 0 -0 0 -0 -0 -0 0 0 0 0 0 0 0 0 0 0 0 0 0 0 0 0 0 0 0 0
0 0 0 0 0 0 0 0 0 0 0 0 0 0 0 0 0 0 0 0 0 0 0 0 0 0 0 0 0 0 0 -0 -0 -0 0 0 0 0 0 0 0 0 0 0 0 0 0 0 0 0 0 0 0 0
0 0 0 0 0 0 0 0 0 0 0 0 0 0 0 0 0 0 0 0 0 0 0 0 0 0 0 0 0 0 0 -0 0 0 -0 -0 0 0 0 0 0 0 0 0 0 0 0 0 0 0 0 0 0 0
0 0 0 0 0 0 0 0 0 0 0 0 0 0 0 0 0 0 0 0 0 0 0 0 0 0 0 0 0 0 0 0 -0 -0 0 0 0 0 0 0 0 0 0 0 0 0 0 0 0 0 0 0 0 0
0 0 0 0 0 0 0 0 0 0 0 0 0 0 0 0 0 0 0 0 0 0 0 0 0 0 0 0 0 0 0 0 0 0 0 0 0 0 0 0 0 0 0 0 0 -0 0 0 0 0 0 0 0 0
0 0 0 0 0 0 0 0 0 0 0 0 0 0 0 0 0 0 0 0 0 0 0 0 0 0 0 0 0 0 0 0 0 0 0 0 0 0 0 0 0 0 0 0 0 0 -0 -0 -0 0 0 0 0 0
0 0 0 0 0 0 0 0 0 0 0 0 0 0 0 0 0 0 0 0 0 0 0 0 0 0 0 0 0 0 0 0 0 0 0 0 0 0 0 0 0 -0 0 0 0 0 0 0 0 0 0 0 0 0
0 0 0 0 0 0 0 0 0 0 0 0 0 0 0 0 0 0 0 0 0 0 0 0 0 0 0 0 0 0 0 0 0 0 0 0 0 0 0 0 0 -0 -0 0 0 0 0 0 0 0 0 0 0 0
0 0 0 0 0 0 0 0 0 0 0 0 0 0 0 0 0 0 0 0 0 0 0 0 0 0 0 0 0 0 0 0 0 0 0 0 0 0 0 0 0 0 0 0 0 0 0 0 0 0 0 0 0 0
0 0 0 0 0 0 0 0 0 0 0 0 0 0 0 0 0 0 0 0 0 0 0 0 0 0 0 0 0 0 0 0 0 0 0 0 0 0 0 0 0 0 0 0 -0 0 0 0 0 0 0 0 0 0
0 0 0 0 0 0 0 0 0 0 0 0 0 0 0 0 0 0 0 0 0 0 0 0 0 0 0 0 0 0 0 0 0 0 0 0 0 0 0 0 0 0 0 0 0 0 0 0 0 0 0 0 0 0
0 0 0 0 0 0 0 0 0 0 0 0 0 0 0 0 0 0 0 0 0 0 0 0 0 0 0 0 0 0 0 0 0 0 0 0 0 0 0 0 0 0 0 0 0 0 0 0 0 0 0 0 0 0
0 0 0 0 0 0 0 0 0 0 0 0 0 0 0 0 0 0 0 0 0 0 0 0 0 0 0 0 0 0 0 0 0 0 0 0 0 0 0 0 0 0 0 0 0 0 0 0 0 0 0 0 0 0
0 0 0 0 0 0 0 0 0 0 0 0 0 0 0 0 0 0 0 0 0 0 0 0 0 0 0 0 0 0 0 0 0 0 0 0 0 0 0 0 0 0 0 0 0 0 0 0 0 0 0 0 0 0
0 0 0 0 0 0 0 0 0 0 0 0 0 0 0 0 0 0 0 0 0 0 0 0 0 0 0 0 0 0 0 0 0 0 0 0 0 0 0 0 0 0 0 0 0 0 0 0 0 0 0 0 0 0
0 0 0 0 0 0 0 0 0 0 0 0 0 0 0 0 0 0 0 0 0 0 0 0 0 0 0 0 0 0 0 0 0 0 0 0 0 0 0 0 0 0 0 0 0 0 0 0 0 0 0 0 0 0
0 0 0 0 0 0 0 0 0 0 0 0 0 0 0 0 0 0 0 0 0 0 0 0 0 0 0 0 0 0 0 0 0 0 0 0 0 0 0 0 0 0 0 0 0 0 0 0 0 0 0 0 0 0
0 0 0 0 0 0 0 0 0 0 0 0 0 0 0 0 0 0 0 0 0 0 0 0 0 0 0 0 0 0 0 0 0 0 0 0 0 -0 0 0 0 0 0 0 0 0 0 0 0 0 0 0 0 0
0 0 0 0 0 0 0 0 0 0 0 0 0 0 0 0 0 0 0 0 0 0 0 0 0 0 0 0 0 0 0 0 0 0 0 0 -0 -0 -0 0 0 0 0 0 0 0 0 0 0 0 0 0 0 0
0 0 0 -0 0 0 0 0 0 0 0 0 0 0 0 0 0 0 0 0 0 0 0 0 0 0 0 0 0 0 0 0 0 0 0 0 0 0 0 0 0 0 0 0 0 0 0 0 0 0 0 0 0 0
0 0 0 0 0 0 0 0 0 0 0 0 0 0 0 0 0 0 0 0 0 0 0 0 0 0 0 0 0 0 0 0 0 0 0 0 0 0 0 0 0 0 0 0 0 0 0 0 0 0 0 0 0 0
0 0 0 0 0 0 0 0 0 0 0 0 0 0 0 0 0 0 0 0 0 0 0 0 0 0 0 0 0 0 0 0 0 0 0 0 0 0 0 0 0 0 0 0 0 0 0 0 0 0 0 0 0 0
0 0 0 0 0 0 0 0 0 0 0 0 0 0 0 0 0 0 0 0 0 0 0 0 0 0 0 0 0 0 0 0 0 0 0 0 0 0 0 0 0 0 0 0 0 0 0 0 0 0 0 0 0 0
0 0 0 0 0 0 0 0 0 0 0 0 0 0 0 0 0 0 0 0 0 0 0 0 0 0 0 0 0 0 0 0 0 0 0 0 0 0 0 0 0 0 0 0 0 0 0 0 0 0 0 0 0 0
0 0 0 0 0 0 0 0 0 0 0 0 0 0 0 0 0 0 0 0 0 0 0 0 0 0 0 0 0 0 0 0 0 0 0 0 0 0 0 0 0 0 0 0 0 0 0 0 0 0 0 0 0 0
0 0 0 0 0 0 0 0 0 0 0 0 0 0 0 0 0 0 0 0 0 0 0 0 0 0 0 0 0 0 0 0 0 0 0 0 0 0 0 0 0 0 0 0 0 0 0 0 0 0 0 0 0 0
0 0 0 0 0 0 0 0 0 0 0 0 0 0 0 0 0 0 0 0 0 0 0 0 0 0 0 0 0 0 0 0 0 0 0 0 0 0 0 0 0 0 0 0 0 0 0 0 0 0 0 0 0 0
0 0 0 0 0 0 0 0 0 0 0 0 0 0 0 0 0 0 0 0 0 0 0 0 0 0 0 0 0 0 0 0 0 0 0 0 0 0 0 0 0 0 0 0 0 0 0 0 0 0 0 0 0 0
0 0 0 0 0 0 0 0 0 0 0 0 0 0 0 0 0 0 0 0 0 0 0 0 0 0 0 0 0 0 0 0 0 0 0 0 0 0 0 0 0 0 0 0 0 0 0 0 0 0 0 0 0 0
0 0 0 0 0 0 0 0 0 0 0 0 0 0 0 0 0 0 0 0 0 0 0 0 0 0 0 0 0 0 0 0 0 0 0 0 0 0 0 0 0 0 0 0 0 0 0 0 0 0 0 0 0 0
0 0 0 -0 0 0 0 0 0 0 0 0 0 0 0 0 0 0 0 0 0 0 0 0 0 0 0 0 0 0 0 0 0 0 0 0 0 0 0 0 0 0 0 0 0 0 0 0 0 0 0 0 0 0
0 0 0 0 0 0 0 0 0 0 0 0 0 0 0 0 0 0 0 0 0 0 0 0 0 0 0 0 0 0 0 0 0 0 0 0 0 0 0 0 0 0 0 0 0 0 0 0 0 0 0 0 0 0
0 0 0 0 0 0 0 0 0 0 0 0 0 0 0 0 0 0 0 0 0 0 0 0 0 0 0 0 0 0 0 0 0 0 0 0 0 0 0 0 0 0 0 0 0 0 0 0 0 0 0 0 0 0
Wind_Speed_500mb
93 88 80 72 70 65 58 58 55 47 43 40 34 29 24 20 17 16 13 13 9 4 2 7 3 3 3 2 2 6 1 7 8 5 4 3 4 5 5 4 2 1 1 2 3 1 9 3 1 2 5 5 4 4
98 92 84 76 71 69 61 55 62 51 45 43 38 32 28 22 18 16 13 15 12 5 2 3 9 8 5 2 5 8 4 2 7 4 3 2 2 2 2 5 4 4 4 3 7 6 6 6 7 3 14 6 2 8
103 93 89 80 75 70 67 58 64 58 50 43 40 34 30 25 19 15 13 13 11 6 4 7 9 9 16 14 5 4 4 3 6 8 4 1 3 1 4 7 4 5 5 2 9 7 8 12 15 16 18 17 17 21
102 98 92 82 81 72 73 60 58 65 55 46 40 37 32 27 22 18 15 16 14 6 6 1 4 8 9 14 19 18 11 6 5 4 2 2 4 3 5 4 4 6 3 7 11 19 30 32 25 19 21 26 29 23
101 100 94 87 84 76 69 70 57 65 59 50 42 37 33 29 24 18 15 15 16 7 5 3 5 6 8 6 8 15 18 10 3 2 1 4 4 2 6 4 7 20 12 8 10 17 14 4 8 22 20 23 23 26
101 101 94 89 87 82 72 68 63 59 62 56 46 39 34 29 23 18 8 19 20 16 4 2 3 5 3 2 4 6 10 12 9 6 5 6 6 3 3 8 19 35 42 47 27 42 41 44 41 37 31 33 27 16
105 99 92 87 81 83 78 70 66 59 62 57 52 42 36 29 25 11 6 6 23 20 8 3 4 0 5 7 9 8 13 10 11 6 6 6 7 11 4 7 10 19 23 31 35 42 47 55 47 39 41 41 32 37
105 101 96 90 83 82 81 73 64 61 55 57 53 44 39 36 28 18 15 16 20 11 6 5 3 2 8 5 6 9 9 13 15 7 6 8 9 10 11 24 39 34 35 40 44 45 50 55 59 59 56 55 50 44
105 98 93 88 84 79 80 74 67 61 58 51 52 45 56 41 25 24 25 16 13 4 8 5 5 4 11 5 6 6 6 5 9 5 8 5 6 15 15 25 32 34 24 27 37 46 50 49 51 48 45 45 49 52
98 93 90 86 86 81 79 77 73 65 61 58 61 33 14 25 25 28 19 14 15 9 7 6 8 5 12 8 4 4 3 2 3 6 3 6 9 41 51 54 51 48 47 49 45 45 32 35 37 41 42 33 36 35
99 97 94 93 91 84 80 82 79 74 72 68 27 15 30 45 23 13 11 11 12 8 14 13 23 11 15 6 4 6 3 1 4 6 3 6 7 9 12 11 16 16 29 33 36 38 37 42 48 46 41 30 24 22
103 98 97 94 95 91 84 87 88 91 60 59 35 49 58 15 10 9 9 11 8 12 24 18 14 15 14 10 6 6 5 1 9 1 3 7 8 16 16 18 22 26 31 32 36 40 36 35 35 36 33 20 23 21
113 99 98 96 96 98 98 95 96 96 51 63 29 20 19 14 13 15 20 7 7 17 23 25 10 16 11 7 7 6 8 9 3 2 7 9 12 20 24 24 22 24 31 34 31 32 31 29 26 28 30 23 25 17
91 94 97 99 95 94 95 100 105 99 76 15 19 18 14 12 12 9 10 10 17 27 53 44 18 11 9 8 6 8 3 5 4 6 11 7 17 15 21 25 28 31 33 32 29 24 21 17 14 17 28 30 26 22
88 95 96 91 93 89 90 95 104 104 40 19 18 16 16 12 14 33 46 38 27 61 61 26 14 12 7 6 4 8 5 8 11 9 7 10 13 19 26 26 26 30 29 26 23 16 12 8 14 13 15 19 20 20
60 83 85 92 87 90 86 87 106 89 35 20 18 10 18 18 3 23 30 24 44 58 41 11 7 8 6 9 7 15 14 13 8 7 19 18 23 26 21 18 20 23 24 20 14 6 2 6 11 13 14 16 16 14
32 17 56 83 80 80 77 75 61 31 23 17 12 42 45 31 29 32 43 46 65 61 8 10 11 14 6 6 6 9 11 7 12 18 19 18 25 22 16 14 12 13 18 12 6 3 8 13 13 15 18 23 22 20
32 36 39 51 62 68 65 51 26 27 14 15 19 43 52 30 51 59 45 71 54 30 28 13 20 7 12 16 7 8 29 30 23 16 17 20 22 17 12 6 1 3 7 6 7 12 16 19 21 23 25 25 23 23
34 28 39 47 39 23 20 17 17 9 7 33 38 54 53 42 60 81 82 89 60 64 25 26 7 9 8 11 13 16 25 27 26 21 15 14 12 11 11 8 10 6 4 4 8 11 17 20 20 21 23 23 21 23
28 26 26 28 42 22 8 7 9 5 5 17 39 38 35 44 61 71 79 79 68 35 8 7 10 15 26 44 30 29 25 21 23 16 15 13 13 11 9 13 16 16 15 13 10 13 16 18 21 22 23 25 24 21
26 26 29 27 26 25 4 1 2 4 8 9 35 48 17 48 43 38 44 63 27 17 7 17 31 38 33 36 38 33 29 24 25 19 10 12 11 9 13 17 18 18 17 17 16 18 20 20 20 20 18 18 18 17
26 31 21 29 9 13 4 2 6 7 3 4 22 25 16 10 22 30 48 24 8 15 18 23 33 37 38 35 32 32 31 33 27 19 15 14 11 12 16 19 23 24 23 21 19 18 17 18 19 18 18 17 17 16
35 31 10 7 5 5 1 13 4 5 4 5 4 5 4 7 22 50 8 6 10 18 19 24 28 30 31 31 29 28 28 26 22 20 19 19 14 16 22 27 29 27 25 23 21 19 17 18 19 18 18 18 17 16
32 12 11 10 15 3 4 3 5 10 4 3 3 4 7 5 21 6 7 8 6 9 17 15 19 22 23 26 26 26 23 23 22 23 23 23 21 21 29 35 36 34 31 28 24 22 20 19 20 21 21 20 20 18
14 21 16 13 18 11 9 6 7 2 6 7 5 5 6 13 2 6 5 8 12 11 9 8 11 15 19 18 18 21 18 19 20 22 23 24 23 25 30 41 44 41 37 33 29 26 24 24 23 23 21 20 20 19
15 18 14 12 12 9 9 7 10 9 8 6 6 9 5 1 3 5 5 16 11 12 12 6 1 4 9 12 15 15 15 14 17 18 21 21 22 26 26 31 40 43 41 37 34 30 29 27 27 26 25 24 23 22
11 8 12 17 9 8 9 12 9 7 10 9 8 11 6 5 6 4 9 15 17 13 13 6 3 6 7 7 7 10 12 14 16 18 19 19 20 23 26 28 34 38 37 36 34 31 30 28 27 27 27 27 27 25
11 20 9 21 14 19 6 7 9 9 7 15 6 11 5 7 4 12 11 21 16 11 9 6 4 4 6 8 8 9 10 11 12 13 15 16 17 20 24 25 28 34 36 34 31 34 33 32 31 30 29 28 27 29
10 16 3 8 11 14 13 7 4 9 11 10 4 4 4 6 13 14 15 12 8 7 2 2 2 3 5 3 4 4 6 9 10 11 15 14 11 11 13 17 19 24 27 30 32 33 33 32 30 29 29 29 29 30
15 19 7 9 9 8 11 12 11 12 6 9 12 17 17 20 27 19 14 12 12 13 13 10 9 7 6 3 5 6 4 3 8 11 11 11 10 9 10 10 12 15 18 22 26 29 30 29 29 30 32 33 32 32
14 11 8 10 6 7 14 17 29 27 21 23 26 20 13 9 20 30 28 26 22 17 15 21 23 17 9 9 8 8 11 8 6 6 5 6 7 8 9 9 9 10 12 15 17 19 19 22 25 27 29 30 31 32
16 10 5 5 1 3 7 4 4 6 7 9 7 4 3 6 8 12 26 21 15 15 20 22 22 17 15 15 14 14 17 15 7 8 6 4 6 7 7 7 8 8 10 11 13 14 15 16 19 22 25 26 27 27
7 12 13 7 4 3 3 3 3 4 7 5 7 8 8 7 6 11 14 18 16 16 16 15 14 13 12 10 8 7 8 9 8 5 9 9 8 8 9 8 8 8 9 9 10 12 13 14 16 18 19 20 21 22
Wind_Direction_500mb
200 200 202 201 195 195 203 196 190 189 193 194 195 196 193 197 202 202 201 196 189 97 114 192 158 1 326 25 60 335 343 10 20 53 29 33 12 18 338 288 326 310 298 227 58 271 291 213 140 262 203 204 210 279
199 197 201 197 196 192 199 195 189 189 192 193 193 196 192 192 190 198 200 199 205 187 111 195 238 225 252 58 74 33 99 91 32 62 47 16 10 359 342 299 335 306 189 227 181 226 229 223 247 244 181 203 249 332
198 196 198 196 195 195 193 197 190 188 189 191 188 193 191 188 185 191 188 185 191 185 218 238 233 230 232 238 213 96 62 78 76 83 73 43 257 142 216 243 313 241 18 243 26 309 260 282 260 260 262 274 302 316
195 197 196 195 193 194 192 194 192 189 186 191 185 187 187 185 183 182 185 176 178 143 116 107 239 241 240 241 231 210 168 103 95 72 124 249 247 158 261 240 184 221 121 216 256 278 281 276 275 300 294 281 286 298
194 195 194 192 191 191 193 190 192 188 185 187 185 180 181 184 181 179 189 190 190 170 135 141 271 237 226 249 231 205 209 182 191 189 161 235 295 12 253 312 245 183 200 172 228 241 230 198 16 339 340 352 338 307
194 195 194 195 190 188 191 190 189 186 187 185 184 181 178 178 172 160 186 216 210 199 154 81 254 222 190 119 151 143 154 175 179 206 251 255 220 190 271 252 236 244 245 250 263 274 285 289 295 301 300 299 310 328
193 192 193 195 190 187 190 188 187 184 185 187 184 183 185 179 179 167 172 186 187 176 172 113 163 327 153 138 154 173 184 194 196 203 229 253 217 200 241 235 262 268 273 272 274 282 288 283 281 283 282 289 290 299
191 191 192 194 189 187 188 187 182 180 180 184 184 181 186 185 187 183 150 130 147 170 161 106 176 185 166 132 139 169 172 184 194 213 226 219 186 221 250 243 248 252 275 278 270 275 277 280 282 280 283 284 281 290
190 190 192 191 187 185 184 182 179 176 175 171 173 170 170 179 195 196 188 187 192 185 144 157 169 158 160 110 101 157 180 192 189 233 213 205 214 228 227 237 247 258 253 264 279 277 279 277 279 281 283 283 274 273
186 184 187 189 187 186 184 181 177 171 167 165 168 165 184 167 183 165 158 186 197 209 210 225 168 157 161 148 150 112 353 287 247 222 240 236 255 257 260 264 276 278 278 283 279 283 284 277 281 284 280 284 287 275
189 187 187 188 185 187 185 182 176 167 170 163 163 145 142 145 144 169 164 175 162 190 204 205 186 142 162 134 157 200 149 128 252 252 163 264 270 241 289 290 278 259 295 298 291 289 288 285 281 278 279 292 285 260
191 190 191 193 184 181 182 181 175 175 175 169 149 131 139 165 173 172 188 172 184 209 169 162 162 132 144 146 130 174 193 132 250 125 242 262 253 266 281 299 305 301 306 310 304 297 287 282 276 272 260 258 290 267
194 199 193 189 186 183 182 182 179 182 166 147 146 148 151 174 198 197 180 185 183 163 159 152 130 140 135 143 109 160 186 229 159 212 235 232 266 292 302 312 314 313 317 317 314 303 293 282 270 261 234 235 268 252
189 190 189 191 194 191 189 187 184 187 164 149 153 151 200 184 222 182 150 149 194 161 150 139 125 130 134 148 139 180 212 59 242 240 237 249 269 283 302 310 309 316 323 323 321 311 296 276 243 230 219 226 223 218
181 189 193 192 190 188 187 187 189 189 182 178 169 195 207 176 145 162 163 154 157 156 146 120 97 119 132 113 174 91 48 248 213 233 229 243 255 290 309 308 310 322 328 327 324 313 292 241 206 204 207 217 208 203
149 171 180 188 189 192 189 190 184 185 191 189 187 190 147 144 110 150 155 132 149 148 141 121 123 137 194 145 128 207 156 220 241 217 240 266 289 303 310 306 323 333 335 332 332 326 243 188 197 200 189 183 176 160
203 183 155 167 187 191 190 181 179 192 187 192 177 208 177 171 162 155 170 171 161 153 162 139 142 187 103 129 218 191 210 216 212 232 261 284 306 312 306 309 332 337 340 344 359 112 135 140 140 148 153 145 143 147
181 216 205 160 168 176 186 198 184 197 184 176 163 198 187 175 168 171 176 168 162 189 165 181 133 162 180 172 225 228 216 225 231 256 275 307 316 305 287 285 339 324 341 29 74 114 126 132 140 146 153 159 170 176
194 183 210 214 200 177 194 212 214 191 154 164 187 193 183 189 200 191 187 183 181 183 167 152 132 186 200 208 205 218 224 225 230 230 283 302 314 296 267 227 173 169 152 141 123 136 145 149 155 162 168 174 172 168
180 189 182 189 208 206 246 251 180 150 180 178 176 174 174 182 182 188 183 175 182 169 162 196 202 198 195 203 213 210 216 202 208 235 251 285 295 277 234 207 199 205 204 195 202 181 176 173 167 169 169 166 169 183
167 179 182 183 198 218 297 224 116 113 135 211 168 158 142 163 160 168 172 178 177 188 186 205 193 189 193 198 202 200 197 210 208 195 242 298 305 269 237 211 206 201 194 180 171 162 158 160 169 170 179 181 182 185
156 164 156 184 187 208 246 196 122 128 141 302 162 151 140 158 163 173 164 181 197 173 175 173 179 179 186 191 195 199 196 192 188 208 246 272 269 246 230 203 195 188 185 184 179 173 173 181 189 194 197 203 204 205
155 156 118 112 133 149 208 173 133 97 129 146 192 113 157 124 147 151 121 93 140 184 179 179 180 185 189 187 188 190 195 206 217 222 238 247 242 226 208 204 201 204 203 204 203 202 204 210 216 215 216 212 206 204
133 90 48 38 13 59 21 285 135 117 98 94 7 59 51 47 146 80 94 51 22 147 165 171 178 182 188 188 195 199 209 218 226 231 234 238 238 233 219 211 212 214 215 215 222 227 226 220 214 208 206 210 215 215
81 14 18 7 17 352 24 359 360 41 102 47 65 41 5 1 27 56 79 20 17 38 102 132 157 179 178 182 193 197 207 217 223 224 227 236 237 237 231 222 221 218 221 225 224 231 233 224 217 218 221 222 224 223
70 16 27 352 359 25 343 17 17 10 353 70 45 326 325 142 102 49 27 350 343 8 31 52 63 174 171 187 211 215 207 221 224 226 220 227 237 238 234 229 227 224 225 227 231 231 230 228 226 227 228 230 229 223
63 355 19 19 356 341 22 4 0 35 51 22 345 341 340 62 70 35 353 351 349 329 344 349 296 270 260 243 239 236 236 237 240 238 237 236 232 231 234 236 225 218 225 230 231 234 234 233 232 232 230 225 222 221
57 24 35 0 41 35 68 23 24 29 360 343 310 27 55 25 31 338 340 337 349 3 349 321 296 286 280 261 255 244 244 247 245 242 242 244 243 239 235 230 232 228 221 226 227 225 228 229 230 230 230 227 224 217
48 359 18 9 51 48 39 30 339 340 336 353 71 75 88 75 6 353 0 3 26 47 82 180 233 301 294 295 276 254 237 232 226 234 235 233 228 238 242 241 234 231 232 226 225 222 224 227 229 228 224 222 220 217
5 14 74 47 54 27 13 7 10 11 60 94 103 108 87 84 59 48 52 63 74 77 78 86 105 126 112 87 78 85 100 170 202 221 232 227 223 228 236 237 231 228 227 226 227 228 230 231 230 225 220 218 216 214
359 15 68 52 92 140 105 72 71 67 72 75 98 108 123 123 67 49 53 54 58 72 94 90 90 90 102 109 107 112 98 84 98 135 174 188 188 187 186 193 201 208 215 220 223 225 225 225 223 221 219 217 214 213
10 30 108 93 288 313 347 33 76 93 47 47 22 53 91 90 61 39 31 46 55 71 70 73 78 72 80 89 89 84 84 84 89 84 93 143 160 155 152 158 166 176 190 199 203 208 211 210 209 206 205 204 204 202
4 29 36 41 25 10 12 18 42 83 65 57 36 34 44 57 68 18 24 29 38 43 60 72 74 66 56 63 80 86 91 87 66 72 102 100 108 116 118 123 134 145 155 171 183 188 187 186 187 188 189 191 191 192
Wind_Speed_850mb
93 88 80 72 70 65 58 58 55 47 43 40 34 29 24 20 17 16 13 13 9 4 2 7 3 3 3 2 2 6 1 7 8 5 4 3 4 5 5 4 2 1 1 2 3 1 9 3 1 2 5 5 4 4
98 92 84 76 71 69 61 55 62 51 45 43 38 32 28 22 18 16 13 15 12 5 2 3 9 8 5 2 5 8 4 2 7 4 3 2 2 2 2 5 4 4 4 3 7 6 6 6 7 3 14 6 2 8
103 93 89 80 75 70 67 58 64 58 50 43 40 34 30 25 19 15 13 13 11 6 4 7 9 9 16 14 5 4 4 3 6 8 4 1 3 1 4 7 4 5 5 2 9 7 8 12 15 16 18 17 17 21
102 98 92 82 81 72 73 60 58 65 55 46 40 37 32 27 22 18 15 16 14 6 6 1 4 8 9 14 19 18 11 6 5 4 2 2 4 3 5 4 4 6 3 7 11 19 30 32 25 19 21 26 29 23
101 100 94 87 84 76 69 70 57 65 59 50 42 37 33 29 24 18 15 15 16 7 5 3 5 6 8 6 8 15 18 10 3 2 1 4 4 2 6 4 7 20 12 8 10 17 14 4 8 22 20 23 23 26
101 101 94 89 87 82 72 68 63 59 62 56 46 39 34 29 23 18 8 19 20 16 4 2 3 5 3 2 4 6 10 12 9 6 5 6 6 3 3 8 19 35 42 47 27 42 41 44 41 37 31 33 27 16
105 99 92 87 81 83 78 70 66 59 62 57 52 42 36 29 25 11 6 6 23 20 8 3 4 0 5 7 9 8 13 10 11 6 6 6 7 11 4 7 10 19 23 31 35 42 47 55 47 39 41 41 32 37
105 101 96 90 83 82 81 73 64 61 55 57 53 44 39 36 28 18 15 16 20 11 6 5 3 2 8 5 6 9 9 13 15 7 6 8 9 10 11 24 39 34 35 40 44 45 50 55 59 59 56 55 50 44
105 98 93 88 84 79 80 74 67 61 58 51 52 45 56 41 25 24 25 16 13 4 8 5 5 4 11 5 6 6 6 5 9 5 8 5 6 15 15 25 32 34 24 27 37 46 50 49 51 48 45 45 49 52
98 93 90 86 86 81 79 77 73 65 61 58 61 33 14 25 25 28 19 14 15 9 7 6 8 5 12 8 4 4 3 2 3 6 3 6 9 41 51 54 51 48 47 49 45 45 32 35 37 41 42 33 36 35
99 97 94 93 91 84 80 82 79 74 72 68 27 15 30 45 23 13 11 11 12 8 14 13 23 11 15 6 4 6 3 1 4 6 3 6 7 9 12 11 16 16 29 33 36 38 37 42 48 46 41 30 24 22
103 98 97 94 95 91 84 87 88 91 60 59 35 49 58 15 10 9 9 11 8 12 24 18 14 15 14 10 6 6 5 1 9 1 3 7 8 16 16 18 22 26 31 32 36 40 36 35 35 36 33 20 23 21
113 99 98 96 96 98 98 95 96 96 51 63 29 20 19 14 13 15 20 7 7 17 23 25 10 16 11 7 7 6 8 9 3 2 7 9 12 20 24 24 22 24 31 34 31 32 31 29 26 28 30 23 25 17
91 94 97 99 95 94 95 100 105 99 76 15 19 18 14 12 12 9 10 10 17 27 53 44 18 11 9 8 6 8 3 5 4 6 11 7 17 15 21 25 28 31 33 32 29 24 21 17 14 17 28 30 26 22
88 95 96 91 93 89 90 95 104 104 40 19 18 16 16 12 14 33 46 38 27 61 61 26 14 12 7 6 4 8 5 8 11 9 7 10 13 19 26 26 26 30 29 26 23 16 12 8 14 13 15 19 20 20
60 83 85 92 87 90 86 87 106 89 35 20 18 10 18 18 3 23 30 24 44 58 41 11 7 8 6 9 7 15 14 13 8 7 19 18 23 26 21 18 20 23 24 20 14 6 2 6 11 13 14 16 16 14
32 17 56 83 80 80 77 75 61 31 23 17 12 42 45 31 29 32 43 46 65 61 8 10 11 14 6 6 6 9 11 7 12 18 19 18 25 22 16 14 12 13 18 12 6 3 8 13 13 15 18 23 22 20
32 36 39 51 62 68 65 51 26 27 14 15 19 43 52 30 51 59 45 71 54 30 28 13 20 7 12 16 7 8 29 30 23 16 17 20 22 17 12 6 1 3 7 6 7 12 16 19 21 23 25 25 23 23
34 28 39 47 39 23 20 17 17 9 7 33 38 54 53 42 60 81 82 89 60 64 25 26 7 9 8 11 13 16 25 27 26 21 15 14 12 11 11 8 10 6 4 4 8 11 17 20 20 21 23 23 21 23
28 26 26 28 42 22 8 7 9 5 5 17 39 38 35 44 61 71 79 79 68 35 8 7 10 15 26 44 30 29 25 21 23 16 15 13 13 11 9 13 16 16 15 13 10 13 16 18 21 22 23 25 24 21
26 26 29 27 26 25 4 1 2 4 8 9 35 48 17 48 43 38 44 63 27 17 7 17 31 38 33 36 38 33 29 24 25 19 10 12 11 9 13 17 18 18 17 17 16 18 20 20 20 20 18 18 18 17
26 31 21 29 9 13 4 2 6 7 3 4 22 25 16 10 22 30 48 24 8 15 18 23 33 37 38 35 32 32 31 33 27 19 15 14 11 12 16 19 23 24 23 21 19 18 17 18 19 18 18 17 17 16
35 31 10 7 5 5 1 13 4 5 4 5 4 5 4 7 22 50 8 6 10 18 19 24 28 30 31 31 29 28 28 26 22 20 19 19 14 16 22 27 29 27 25 23 21 19 17 18 19 18 18 18 17 16
32 12 11 10 15 3 4 3 5 10 4 3 3 4 7 5 21 6 7 8 6 9 17 15 19 22 23 26 26 26 23 23 22 23 23 23 21 21 29 35 36 34 31 28 24 22 20 19 20 21 21 20 20 18
14 21 16 13 18 11 9 6 7 2 6 7 5 5 6 13 2 6 5 8 12 11 9 8 11 15 19 18 18 21 18 19 20 22 23 24 23 25 30 41 44 41 37 33 29 26 24 24 23 23 21 20 20 19
15 18 14 12 12 9 9 7 10 9 8 6 6 9 5 1 3 5 5 16 11 12 12 6 1 4 9 12 15 15 15 14 17 18 21 21 22 26 26 31 40 43 41 37 34 30 29 27 27 26 25 24 23 22
11 8 12 17 9 8 9 12 9 7 10 9 8 11 6 5 6 4 9 15 17 13 13 6 3 6 7 7 7 10 12 14 16 18 19 19 20 23 26 28 34 38 37 36 34 31 30 28 27 27 27 27 27 25
11 20 9 21 14 19 6 7 9 9 7 15 6 11 5 7 4 12 11 21 16 11 9 6 4 4 6 8 8 9 10 11 12 13 15 16 17 20 24 25 28 34 36 34 31 34 33 32 31 30 29 28 27 29
10 16 3 8 11 14 13 7 4 9 11 10 4 4 4 6 13 14 15 12 8 7 2 2 2 3 5 3 4 4 6 9 10 11 15 14 11 11 13 17 19 24 27 30 32 33 33 32 30 29 29 29 29 30
15 19 7 9 9 8 11 12 11 12 6 9 12 17 17 20 27 19 14 12 12 13 13 10 9 7 6 3 5 6 4 3 8 11 11 11 10 9 10 10 12 15 18 22 26 29 30 29 29 30 32 33 32 32
14 11 8 10 6 7 14 17 29 27 21 23 26 20 13 9 20 30 28 26 22 17 15 21 23 17 9 9 8 8 11 8 6 6 5 6 7 8 9 9 9 10 12 15 17 19 19 22 25 27 29 30 31 32
16 10 5 5 1 3 7 4 4 6 7 9 7 4 3 6 8 12 26 21 15 15 20 22 22 17 15 15 14 14 17 15 7 8 6 4 6 7 7 7 8 8 10 11 13 14 15 16 19 22 25 26 27 27
7 12 13 7 4 3 3 3 3 4 7 5 7 8 8 7 6 11 14 18 16 16 16 15 14 13 12 10 8 7 8 9 8 5 9 9 8 8 9 8 8 8 9 9 10 12 13 14 16 18 19 20 21 22
Wind_Direction_850mb
200 200 202 201 195 195 203 196 190 189 193 194 195 196 193 197 202 202 201 196 189 97 114 192 158 1 326 25 60 335 343 10 20 53 29 33 12 18 338 288 326 310 298 227 58 271 291 213 140 262 203 204 210 279
199 197 201 197 196 192 199 195 189 189 192 193 193 196 192 192 190 198 200 199 205 187 111 195 238 225 252 58 74 33 99 91 32 62 47 16 10 359 342 299 335 306 189 227 181 226 229 223 247 244 181 203 249 332
198 196 198 196 195 195 193 197 190 188 189 191 188 193 191 188 185 191 188 185 191 185 218 238 233 230 232 238 213 96 62 78 76 83 73 43 257 142 216 243 313 241 18 243 26 309 260 282 260 260 262 274 302 316
195 197 196 195 193 194 192 194 192 189 186 191 185 187 187 185 183 182 185 176 178 143 116 107 239 241 240 241 231 210 168 103 95 72 124 249 247 158 261 240 184 221 121 216 256 278 281 276 275 300 294 281 286 298
194 195 194 192 191 191 193 190 192 188 185 187 185 180 181 184 181 179 189 190 190 170 135 141 271 237 226 249 231 205 209 182 191 189 161 235 295 12 253 312 245 183 200 172 228 241 230 198 16 339 340 352 338 307
194 195 194 195 190 188 191 190 189 186 187 185 184 181 178 178 172 160 186 216 210 199 154 81 254 222 190 119 151 143 154 175 179 206 251 255 220 190 271 252 236 244 245 250 263 274 285 289 295 301 300 299 310 328
193 192 193 195 190 187 190 188 187 184 185 187 184 183 185 179 179 167 172 186 187 176 172 113 163 327 153 138 154 173 184 194 196 203 229 253 217 200 241 235 262 268 273 272 274 282 288 283 281 283 282 289 290 299
191 191 192 194 189 187 188 187 182 180 180 184 184 181 186 185 187 183 150 130 147 170 161 106 176 185 166 132 139 169 172 184 194 213 226 219 186 221 250 243 248 252 275 278 270 275 277 280 282 280 283 284 281 290
190 190 192 191 187 185 184 182 179 176 175 171 173 170 170 179 195 196 188 187 192 185 144 157 169 158 160 110 101 157 180 192 189 233 213 205 214 228 227 237 247 258 253 264 279 277 279 277 279 281 283 283 274 273
186 184 187 189 187 186 184 181 177 171 167 165 168 165 184 167 183 165 158 186 197 209 210 225 168 157 161 148 150 112 353 287 247 222 240 236 255 257 260 264 276 278 278 283 279 283 284 277 281 284 280 284 287 275
189 187 187 188 185 187 185 182 176 167 170 163 163 145 142 145 144 169 164 175 162 190 204 205 186 142 162 134 157 200 149 128 252 252 163 264 270 241 289 290 278 259 295 298 291 289 288 285 281 278 279 292 285 260
191 190 191 193 184 181 182 181 175 175 175 169 149 131 139 165 173 172 188 172 184 209 169 162 162 132 144 146 130 174 193 132 250 125 242 262 253 266 281 299 305 301 306 310 304 297 287 282 276 272 260 258 290 267
194 199 193 189 186 183 182 182 179 182 166 147 146 148 151 174 198 197 180 185 183 163 159 152 130 140 135 143 109 160 186 229 159 212 235 232 266 292 302 312 314 313 317 317 314 303 293 282 270 261 234 235 268 252
189 190 189 191 194 191 189 187 184 187 164 149 153 151 200 184 222 182 150 149 194 161 150 139 125 130 134 148 139 180 212 59 242 240 237 249 269 283 302 310 309 316 323 323 321 311 296 276 243 230 219 226 223 218
181 189 193 192 190 188 187 187 189 189 182 178 169 195 207 176 145 162 163 154 157 156 146 120 97 119 132 113 174 91 48 248 213 233 229 243 255 290 309 308 310 322 328 327 324 313 292 241 206 204 207 217 208 203
149 171 180 188 189 192 189 190 184 185 191 189 187 190 147 144 110 150 155 132 149 148 141 121 123 137 194 145 128 207 156 220 241 217 240 266 289 303 310 306 323 333 335 332 332 326 243 188 197 200 189 183 176 160
203 183 155 167 187 191 190 181 179 192 187 192 177 208 177 171 162 155 170 171 161 153 162 139 142 187 103 129 218 191 210 216 212 232 261 284 306 312 306 309 332 337 340 344 359 112 135 140 140 148 153 145 143 147
181 216 205 160 168 176 186 198 184 197 184 176 163 198 187 175 168 171 176 168 162 189 165 181 133 162 180 172 225 228 216 225 231 256 275 307 316 305 287 285 339 324 341 29 74 114 126 132 140 146 153 159 170 176
194 183 210 214 200 177 194 212 214 191 154 164 187 193 183 189 200 191 187 183 181 183 167 152 132 186 200 208 205 218 224 225 230 230 283 302 314 296 267 227 173 169 152 141 123 136 145 149 155 162 168 174 172 168
180 189 182 189 208 206 246 251 180 150 180 178 176 174 174 182 182 188 183 175 182 169 162 196 202 198 195 203 213 210 216 202 208 235 251 285 295 277 234 207 199 205 204 195 202 181 176 173 167 169 169 166 169 183
167 179 182 183 198 218 297 224 116 113 135 211 168 158 142 163 160 168 172 178 177 188 186 205 193 189 193 198 202 200 197 210 208 195 242 298 305 269 237 211 206 201 194 180 171 162 158 160 169 170 179 181 182 185
156 164 156 184 187 208 246 196 122 128 141 302 162 151 140 158 163 173 164 181 197 173 175 173 179 179 186 191 195 199 196 192 188 208 246 272 269 246 230 203 195 188 185 184 179 173 173 181 189 194 197 203 204 205
155 156 118 112 133 149 208 173 133 97 129 146 192 113 157 124 147 151 121 93 140 184 179 179 180 185 189 187 188 190 195 206 217 222 238 247 242 226 208 204 201 204 203 204 203 202 204 210 216 215 216 212 206 204
133 90 48 38 13 59 21 285 135 117 98 94 7 59 51 47 146 80 94 51 22 147 165 171 178 182 188 188 195 199 209 218 226 231 234 238 238 233 219 211 212 214 215 215 222 227 226 220 214 208 206 210 215 215
81 14 18 7 17 352 24 359 360 41 102 47 65 41 5 1 27 56 79 20 17 38 102 132 157 179 178 182 193 197 207 217 223 224 227 236 237 237 231 222 221 218 221 225 224 231 233 224 217 218 221 222 224 223
70 16 27 352 359 25 343 17 17 10 353 70 45 326 325 142 102 49 27 350 343 8 31 52 63 174 171 187 211 215 207 221 224 226 220 227 237 238 234 229 227 224 225 227 231 231 230 228 226 227 228 230 229 223
63 355 19 19 356 341 22 4 0 35 51 22 345 341 340 62 70 35 353 351 349 329 344 349 296 270 260 243 239 236 236 237 240 238 237 236 232 231 234 236 225 218 225 230 231 234 234 233 232 232 230 225 222 221
57 24 35 0 41 35 68 23 24 29 360 343 310 27 55 25 31 338 340 337 349 3 349 321 296 286 280 261 255 244 244 247 245 242 242 244 243 239 235 230 232 228 221 226 227 225 228 229 230 230 230 227 224 217
48 359 18 9 51 48 39 30 339 340 336 353 71 75 88 75 6 353 0 3 26 47 82 180 233 301 294 295 276 254 237 232 226 234 235 233 228 238 242 241 234 231 232 226 225 222 224 227 229 228 224 222 220 217
5 14 74 47 54 27 13 7 10 11 60 94 103 108 87 84 59 48 52 63 74 77 78 86 105 126 112 87 78 85 100 170 202 221 232 227 223 228 236 237 231 228 227 226 227 228 230 231 230 225 220 218 216 214
359 15 68 52 92 140 105 72 71 67 72 75 98 108 123 123 67 49 53 54 58 72 94 90 90 90 102 109 107 112 98 84 98 135 174 188 188 187 186 193 201 208 215 220 223 225 225 225 223 221 219 217 214 213
10 30 108 93 288 313 347 33 76 93 47 47 22 53 91 90 61 39 31 46 55 71 70 73 78 72 80 89 89 84 84 84 89 84 93 143 160 155 152 158 166 176 190 199 203 208 211 210 209 206 205 204 204 202
4 29 36 41 25 10 12 18 42 83 65 57 36 34 44 57 68 18 24 29 38 43 60 72 74 66 56 63 80 86 91 87 66 72 102 100 108 116 118 123 134 145 155 171 183 188 187 186 187 188 189 191 191 192